Weather History for KAHN - August, 2014

Change the Weather History Date:

Wednesday, August 13, 2014

  Actual Average Record
Temperature  
Mean Temperature 79 °F 80 °F  
Max Temperature 90 °F 90 °F 104 °F (1925)
Min Temperature 68 °F 70 °F 56 °F (1964)
Cooling Degree Days 14 15  
Month to date cooling degree days 179 197  
Year to date cooling degree days 1316 1299  
Since 1 June cooling degree days 1046 1059  
Growing Degree Days 29 (Base 50)    
Moisture  
Dew Point 58 °F    
Average Humidity 54    
Maximum Humidity 84    
Minimum Humidity 23    
Precipitation  
Precipitation 0.00 in 0.11 in 4.80 in (1940)
Month to date precipitation 0.44 1.60  
Year to date precipitation 28.04 29.36  
Sea Level Pressure  
Sea Level Pressure 29.93 in    
Wind  
Wind Speed 5 mph (WNW)    
Max Wind Speed 13 mph    
Max Gust Speed 18 mph    
Visibility 10 miles    
Events      
T = Trace of Precipitation, MM = Missing Value Source: NWS Daily Summary

Daily Weather History Graph

Daily Weather History Graph

Search for Another Location

Airport or City:

Trip Planner

Search our weather history database for the weather conditions in past years. The results will help you decide how hot, cold, wet, or windy it might be!

Date:

Astronomy

Aug. 13, 2014 Rise Set
Actual Time 6:53 AM EDT 8:22 PM EDT
Civil Twilight 6:26 AM EDT 8:48 PM EDT
Nautical Twilight 5:55 AM EDT 9:20 PM EDT
Astronomical Twilight 5:21 AM EDT 9:53 PM EDT
Moon 10:20 PM EDT (8/13) 10:08 AM EDT (8/13)
Length of Visible Light 14h 21m
Length of Day
13h 28m
Waning Gibbous, 88% of the Moon is Illuminated
Aug 13
Waning Gibbous
Aug 17
Last Quarter
Aug 25
New
Sep 2
First Quarter
Sep 8
Full

Hourly Weather History & Observations

Time (EDT) Temp. Heat Index Dew Point Humidity Pressure Visibility Wind Dir Wind Speed Gust Speed Precip Events Conditions
12:51 AM 73.0 °F - 66.9 °F 81% 29.88 in 10.0 mi West 3.5 mph - N/A   Clear
1:51 AM 73.9 °F - 64.9 °F 73% 29.87 in 10.0 mi NW 3.5 mph - N/A   Clear
2:51 AM 71.6 °F - 64.4 °F 78% 29.90 in 10.0 mi NW 3.5 mph - N/A   Clear
3:51 AM 71.1 °F - 66.0 °F 84% 29.89 in 10.0 mi West 3.5 mph - N/A   Mostly Cloudy
4:51 AM 71.6 °F - 64.4 °F 78% 29.91 in 10.0 mi NW 3.5 mph - N/A   Clear
5:51 AM 70.0 °F - 64.0 °F 81% 29.90 in 10.0 mi NNW 4.6 mph - N/A   Clear
6:51 AM 69.1 °F - 63.0 °F 81% 29.91 in 10.0 mi WNW 4.6 mph - N/A   Partly Cloudy
10:51 AM 80.6 °F 80.5 °F 55.4 °F 42% 29.99 in 9.0 mi NNW 9.2 mph - N/A   Clear
11:51 AM 82.0 °F 81.6 °F 55.9 °F 41% 29.97 in 9.0 mi NNW 9.2 mph - N/A   Clear
12:51 PM 86.0 °F 84.5 °F 55.0 °F 35% 29.96 in 10.0 mi WNW 8.1 mph - N/A   Clear
1:51 PM 87.1 °F - 52.0 °F 30% 29.95 in 10.0 mi West 10.4 mph 17.3 mph N/A   Clear
2:51 PM 89.1 °F - 48.9 °F 25% 29.94 in 9.0 mi Variable 3.5 mph - N/A   Clear
3:51 PM 90.0 °F - 46.0 °F 22% 29.92 in 10.0 mi West 10.4 mph - N/A   Clear
4:51 PM 89.6 °F - 48.2 °F 24% 29.94 in 10.0 mi West 4.6 mph - N/A   Clear
5:51 PM 88.0 °F 85.7 °F 53.1 °F 30% 29.91 in 10.0 mi WNW 5.8 mph - N/A   Clear
6:51 PM 86.0 °F 84.0 °F 53.1 °F 32% 29.92 in 10.0 mi Variable 3.5 mph - N/A   Clear
7:51 PM 82.0 °F 81.6 °F 55.9 °F 41% 29.94 in 10.0 mi NW 4.6 mph - N/A   Clear
8:51 PM 78.1 °F - 57.0 °F 48% 29.95 in 10.0 mi Calm Calm - N/A   Clear
9:51 PM 72.0 °F - 60.1 °F 66% 29.97 in 10.0 mi Calm Calm - N/A   Clear
10:51 PM 72.0 °F - 59.0 °F 64% 29.99 in 10.0 mi Calm Calm - N/A   Clear